Weather History for Danbury, CT

Change the Weather History Date:

Saturday, August 18, 2012

  Actual Average Record
Temperature  
Mean Temperature 67 °F -  
Max Temperature 78 °F 79 °F 93 °F (2002)
Min Temperature 57 °F 58 °F 45 °F (1954)
Cooling Degree Days 2    
Growing Degree Days 17 (Base 50)    
Moisture  
Dew Point 60 °F    
Average Humidity 78    
Maximum Humidity 94    
Minimum Humidity 46    
Precipitation  
Precipitation 0.68 in - - ()
Sea Level Pressure  
Sea Level Pressure 29.90 in    
Wind  
Wind Speed 3 mph (NNW)    
Max Wind Speed 8 mph    
Max Gust Speed -    
Visibility 8 miles    
Events Rain    
Averages and records for this station are not official NWS values.
T = Trace of Precipitation, MM = Missing Value Source: NWS Daily Summary

Daily Weather History Graph

Daily Weather History Graph

Search for Another Location

Airport:

Trip Planner

Search our weather history database for the weather conditions in past years. The results will help you decide how hot, cold, wet, or windy it might be!

Date:

Astronomy

Aug. 18, 2012 Rise Set
Actual Time 6:06 AM EDT 7:48 PM EDT
Civil Twilight 5:37 AM EDT 8:17 PM EDT
Nautical Twilight 5:01 AM EDT 8:52 PM EDT
Astronomical Twilight 4:23 AM EDT 9:30 PM EDT
Moon 7:13 AM EDT (8/18) 8:00 PM EDT (8/18)
Length of Visible Light 14h 40m
Length of Day
13h 41m
New Moon, 1% of the Moon is Illuminated
Aug 18
New Moon
Aug 24
First Quarter
Aug 31
Full
Sep 8
Last Quarter
Sep 15
New

Hourly Weather History & Observations

Time (EDT) Temp. Dew Point Humidity Pressure Visibility Wind Dir Wind Speed Gust Speed Precip Events Conditions
12:27 AM 69.8 °F 66.2 °F 88% 29.88 in 2.0 mi SSW 4.6 mph - 0.09 in Rain Heavy Rain
12:32 AM 69.8 °F 66.2 °F 88% 29.88 in 1.0 mi Calm Calm - 0.19 in Rain Heavy Rain
12:40 AM 68.0 °F 66.2 °F 94% 29.88 in 2.0 mi Calm Calm - 0.21 in Rain Rain
12:53 AM 68.0 °F 66.0 °F 93% 29.87 in 1.8 mi West 3.5 mph - 0.28 in Rain Heavy Rain
1:04 AM 68.0 °F 66.2 °F 94% 29.88 in 3.0 mi NW 3.5 mph - 0.03 in Rain Rain
1:53 AM 66.0 °F 62.1 °F 87% 29.89 in 3.0 mi Variable 3.5 mph - 0.15 in Rain Heavy Rain
2:00 AM 66.2 °F 62.6 °F 88% 29.91 in 2.0 mi WNW 3.5 mph - 0.06 in Rain Heavy Rain
2:15 AM 64.4 °F 60.8 °F 88% 29.90 in 4.0 mi North 3.5 mph - 0.11 in Rain Rain
2:53 AM 64.0 °F 59.0 °F 84% 29.88 in 10.0 mi NE 3.5 mph - 0.15 in Rain Light Rain
3:53 AM 64.0 °F 60.1 °F 87% 29.88 in 10.0 mi NW 3.5 mph - 0.02 in   Mostly Cloudy
4:53 AM 64.0 °F 60.1 °F 87% 29.88 in 10.0 mi Calm Calm - 0.00 in   Mostly Cloudy
5:53 AM 64.0 °F 61.0 °F 90% 29.88 in 10.0 mi ESE 5.8 mph - 0.04 in   Mostly Cloudy
6:49 AM 64.4 °F 62.6 °F 94% 29.91 in 10.0 mi Calm Calm - N/A   Overcast
6:53 AM 64.0 °F 61.0 °F 90% 29.90 in 10.0 mi Calm Calm - N/A   Overcast
7:53 AM 64.0 °F 61.0 °F 90% 29.91 in 8.0 mi Calm Calm - 0.02 in Rain Light Rain
8:26 AM 64.4 °F 62.6 °F 94% 29.92 in 10.0 mi NNW 3.5 mph - 0.01 in Rain Light Rain
8:53 AM 64.9 °F 62.1 °F 90% 29.91 in 10.0 mi Calm Calm - 0.01 in   Overcast
9:53 AM 66.0 °F 61.0 °F 84% 29.92 in 10.0 mi NNE 3.5 mph - N/A   Overcast
10:53 AM 71.1 °F 62.1 °F 73% 29.92 in 10.0 mi NNE 3.5 mph - N/A   Mostly Cloudy
11:50 AM 71.6 °F 60.8 °F 69% 29.93 in 10.0 mi North 5.8 mph - N/A   Scattered Clouds
11:53 AM 72.0 °F 60.1 °F 66% 29.92 in 10.0 mi NNW 8.1 mph - N/A   Mostly Cloudy
12:53 PM 72.0 °F 57.9 °F 61% 29.91 in 10.0 mi North 4.6 mph - 0.01 in   Mostly Cloudy
1:53 PM 75.9 °F 57.0 °F 52% 29.89 in 10.0 mi Variable 6.9 mph - N/A   Scattered Clouds
2:53 PM 75.9 °F 54.0 °F 46% 29.89 in 10.0 mi North 8.1 mph - N/A   Mostly Cloudy
3:53 PM 77.0 °F 55.0 °F 47% 29.88 in 10.0 mi NW 5.8 mph - N/A   Scattered Clouds
4:53 PM 75.9 °F 55.0 °F 48% 29.87 in 10.0 mi North 5.8 mph - N/A   Clear
5:53 PM 75.0 °F 55.0 °F 50% 29.87 in 10.0 mi North 8.1 mph - N/A   Clear
6:53 PM 73.0 °F 53.1 °F 49% 29.88 in 10.0 mi North 6.9 mph - N/A   Scattered Clouds
7:53 PM 69.1 °F 55.0 °F 61% 29.90 in 10.0 mi Calm Calm - N/A   Clear
8:53 PM 63.0 °F 57.0 °F 81% 29.92 in 10.0 mi Calm Calm - N/A   Clear
9:53 PM 60.1 °F 57.0 °F 90% 29.93 in 10.0 mi SW 4.6 mph - N/A   Clear
10:53 PM 57.9 °F 55.0 °F 90% 29.95 in 10.0 mi SW 3.5 mph - N/A   Clear
11:53 PM 57.0 °F 55.0 °F 93% 29.96 in 10.0 mi SW 4.6 mph - N/A   Clear